AirNav   Everest Fuels
 
 1085 users online  

LL45 Lindell Loveless Airport
Gillespie, Illinois, USA

GOING TO GILLESPIE?


FAA INFORMATION EFFECTIVE 01 DECEMBER 2022

Location

FAA Identifier: LL45
Lat/Long: 39-10-56.1700N 089-49-18.3460W
39-10.936167N 089-49.305767W
39.1822694,-89.8217628
(estimated)
Elevation: 657 ft. / 200.3 m (surveyed)
Variation: 01E (1985)
From city: 3 miles N of GILLESPIE, IL
Time zone: UTC -6 (UTC -5 during Daylight Saving Time)
Zip code: 62033

Airport Operations

Airport use: Private use. Permission required prior to landing
Activation date: 03/1967
Control tower: no
ARTCC: KANSAS CITY CENTER
FSS: SAINT LOUIS FLIGHT SERVICE STATION
Attendance: UNATNDD
Wind indicator: yes
Segmented circle: no
Lights: FOR RWY LGTS CALL 217-827-2108.

Airport Communications

WX AWOS-3 at 3LF (7 nm E): 118.175 (217-324-4735)

Nearby radio navigation aids

VOR radial/distance  VOR name  Freq  Var
TOYr006/27.0TROY VORTAC116.0004E
VLAr276/31.1VANDALIA VOR/DME114.3004E
STLr057/36.3ST LOUIS VORTAC117.4001E

Airport Services

Fuel available: 100LL
Airframe service: NONE
Powerplant service: NONE

Runway Information

Runway N/S

Dimensions: 3650 x 130 ft. / 1113 x 40 m
Surface: turf
Runway edge lights: low intensity
RUNWAY N  RUNWAY S
Traffic pattern: leftleft

Airport Ownership and Management from official FAA records

Ownership: Privately-owned
Owner: LINDELL LOVELESS
17564 HONEY CREEK RD
GILLESPIE, IL 62033
Phone (217) 827-2108
Manager: MATT COLE
12979 HICKORY GROVE RD
GILLESPIE, IL 62033
Phone (217) 827-2108
EMAIL ADDRESS: MCOLE73@HOTMAIL.COM (ALL LOWER CASE)

Airport Operational Statistics

Aircraft based on the field: 3
Single engine airplanes: 2
Multi engine airplanes: 1
    

Additional Remarks

FOR CD CTC ST LOUIS APCH AT 314-890-1018.

Instrument Procedures

There are no published instrument procedures at LL45.

Some nearby airports with instrument procedures:

3LF - Litchfield Municipal Airport (7 nm E)
KALN - St Louis Regional Airport (20 nm SW)
KGRE - Greenville Airport (29 nm SE)
KTAZ - Taylorville Municipal Airport (31 nm NE)
KSET - St Charles County Smartt Airport (32 nm SW)
 
Loc | Ops | Rwys | IFR | FBO | Links
Com | Nav | Svcs | Stats | Notes
Area around LL45 (Lindell Loveless Airport)
 
Road maps at: MapQuest Bing Google
 
Aerial photo
No photo
 
Sectional chart

 
Airport distance calculator
Flying to Lindell Loveless Airport? Find the distance to fly.

From to LL45

Sunrise and sunset
Times for 06-Dec-2022
 Local
(UTC-6)
 Zulu
(UTC)
Morning civil twilight06:3612:36
Sunrise07:0513:05
Sunset16:3522:35
Evening civil twilight17:0523:05

Current date and time
Zulu (UTC)  07-Dec-2022 03:17:22
Local (UTC-6)  06-Dec-2022 21:17:22
 
METAR
K3LF 
7nm E 
070255Z AUTO 36004KT 2 1/2SM BR OVC012 07/06 A3005 RMK AO2 T00650063
TAF
KSTL 
36nm SW 
062159Z 0622/0724 07005KT 1SM -RA BR OVC004 FM070000 VRB05KT 4SM -DZ BR OVC005 FM070300 VRB05KT 4SM BR OVC005 FM070700 VRB05KT 2SM BR OVC005
KBLV 
39nm S 
070000Z 0700/0806 05006KT 1600 BR OVC002 QNH2995INS BECMG 0703/0704 35006KT 0400 FG OVC001 QNH3001INS BECMG 0714/0715 35006KT 1600 BR OVC002 QNH3022INS TX09/0720Z TN05/0713Z
KCPS 
40nm SW 
062138Z 0622/0718 VRB04KT 3/4SM -RA BR OVC004 FM070100 VRB04KT 5SM -DZ BR OVC004 FM070400 VRB04KT 4SM BR OVC004 FM070700 VRB04KT 2SM BR OVC004
KSPI 
41nm N 
062029Z 0620/0718 05006KT 2SM BR VCSH OVC008 FM070600 36005KT 5SM BR BKN012 FM071100 VRB04KT 2SM BR BKN006 FM071600 VRB04KT 6SM BR BKN015
NOTAMs
Click for the latest NOTAMs
NOTAMs are issued by the DoD/FAA and will open in a separate window not controlled by AirNav.

 

 
 

Would you like to see your business listed on this page?

 If your business provides an interesting product or service to pilots, flight crews, aircraft, or users of the Lindell Loveless Airport, you should consider listing it here.  To start the listing process, click on the button below
 
Add a business
 

Other Pages about Lindell Loveless Airport

Update a link
 
Copyright © AirNav, LLC. All rights reserved. Privacy Policy  Contact